Weather History for Kimball, NE

Change the Weather History Date:

Wednesday, January 15, 2014

  Actual Average (KSNY) Record (KSNY)
Temperature  
Mean Temperature 40 °F 29 °F  
Max Temperature 52 °F 42 °F 68 °F (2012)
Min Temperature 29 °F 16 °F -11 °F (2013)
Degree Days  
Heating Degree Days 24 36  
Month to date heating degree days 540  
Since 1 July heating degree days 3087  
Cooling Degree Days 0 0  
Month to date cooling degree days 0  
Year to date cooling degree days 0  
Moisture  
Dew Point 20 °F    
Average Humidity 47    
Maximum Humidity 69    
Minimum Humidity 26    
Precipitation  
Precipitation 0.00 in 0.01 in 0.12 in (1966)
Month to date precipitation 0.10  
Year to date precipitation 0.10  
Sea Level Pressure  
Sea Level Pressure 30.04 in    
Wind  
Wind Speed 20 mph (WNW)    
Max Wind Speed 36 mph    
Max Gust Speed 44 mph    
Visibility 10 miles    
Events      
T = Trace of Precipitation, MM = Missing Value Source: NWS Daily Summary

Daily Weather History Graph

Daily Weather History Graph

Search for Another Location

Airport:

Trip Planner

Search our weather history database for the weather conditions in past years. The results will help you decide how hot, cold, wet, or windy it might be!

Date:

Astronomy

Jan. 15, 2014 Rise Set
Actual Time 8:17 AM CST 5:50 PM CST
Civil Twilight 7:47 AM CST 6:21 PM CST
Nautical Twilight 7:13 AM CST 6:55 PM CST
Astronomical Twilight 6:40 AM CST 7:28 PM CST
Moon 5:51 PM CST (1/15) 7:35 AM CST (1/15)
Length of Visible Light 10h 33m
Length of Day
9h 32m
Full, 100% of the Moon is Illuminated
Jan 15
Full
Jan 15
Full
Jan 23
Last Quarter
Jan 30
New
Feb 6
First Quarter

Hourly Weather History & Observations

Time (CST) Temp. Windchill Dew Point Humidity Pressure Visibility Wind Dir Wind Speed Gust Speed Precip Events Conditions
12:15 AM 31.6 °F 20.7 °F 20.7 °F 64% 30.22 in 10.0 mi WNW 16.1 mph - N/A   Overcast
12:35 AM 33.1 °F 21.5 °F 22.1 °F 64% 30.21 in 10.0 mi WNW 19.6 mph - N/A   Overcast
12:55 AM 34.2 °F 22.6 °F 23.0 °F 64% 30.20 in 10.0 mi WNW 20.7 mph 26.5 mph N/A   Overcast
1:10 AM 34.0 °F 22.1 °F 23.0 °F 64% 30.19 in 10.0 mi WNW 21.9 mph 28.8 mph N/A   Overcast
1:35 AM 32.9 °F 21.3 °F 22.5 °F 65% 30.19 in 10.0 mi WNW 19.6 mph 25.3 mph N/A   Overcast
1:55 AM 32.9 °F 21.3 °F 22.3 °F 65% 30.19 in 10.0 mi WNW 19.6 mph - N/A   Overcast
2:15 AM 32.0 °F 19.8 °F 21.7 °F 66% 30.17 in 10.0 mi WNW 20.7 mph - N/A   Mostly Cloudy
2:35 AM 31.8 °F 20.2 °F 21.2 °F 65% 30.17 in 10.0 mi WNW 18.4 mph - N/A   Scattered Clouds
2:55 AM 32.0 °F 19.2 °F 21.2 °F 64% 30.17 in 10.0 mi WNW 23.0 mph - N/A   Clear
3:15 AM 32.0 °F 20.8 °F 21.0 °F 64% 30.17 in 10.0 mi WNW 17.3 mph - N/A   Clear
3:35 AM 32.0 °F 20.1 °F 20.8 °F 63% 30.16 in 10.0 mi WNW 19.6 mph 25.3 mph N/A   Clear
3:55 AM 32.0 °F 19.8 °F 20.8 °F 63% 30.15 in 10.0 mi WNW 20.7 mph 29.9 mph N/A   Clear
4:15 AM 32.0 °F 20.5 °F 20.8 °F 63% 30.14 in 10.0 mi WNW 18.4 mph - N/A   Clear
4:35 AM 32.0 °F 20.5 °F 21.0 °F 64% 30.13 in 10.0 mi WNW 18.4 mph - N/A   Clear
4:55 AM 32.5 °F 21.9 °F 20.8 °F 62% 30.12 in 10.0 mi WNW 16.1 mph - N/A   Clear
5:15 AM 32.0 °F 22.1 °F 20.8 °F 63% 30.12 in 10.0 mi West 13.8 mph - N/A   Scattered Clouds
5:35 AM 31.1 °F 20.9 °F 20.7 °F 65% 30.12 in 10.0 mi West 13.8 mph - N/A   Mostly Cloudy
5:55 AM 29.8 °F 19.8 °F 20.3 °F 68% 30.11 in 10.0 mi West 12.7 mph - N/A   Scattered Clouds
6:15 AM 30.9 °F 19.8 °F 20.5 °F 65% 30.10 in 10.0 mi West 16.1 mph - N/A   Clear
6:35 AM 30.9 °F 19.8 °F 20.7 °F 66% 30.10 in 10.0 mi West 16.1 mph - N/A   Clear
6:55 AM 30.4 °F 19.5 °F 20.8 °F 68% 30.09 in 10.0 mi West 15.0 mph 23.0 mph N/A   Clear
7:15 AM 30.7 °F 20.0 °F 20.8 °F 67% 30.08 in 10.0 mi West 15.0 mph - N/A   Clear
7:35 AM 32.0 °F 20.8 °F 21.0 °F 64% 30.07 in 10.0 mi West 17.3 mph 23.0 mph N/A   Clear
7:55 AM 30.7 °F 20.9 °F 20.3 °F 65% 30.06 in 10.0 mi West 12.7 mph - N/A   Clear
8:15 AM 29.3 °F 19.1 °F 20.1 °F 69% 30.06 in 10.0 mi West 12.7 mph - N/A   Clear
8:35 AM 29.8 °F 18.9 °F 20.3 °F 68% 30.06 in 10.0 mi West 15.0 mph - N/A   Clear
8:55 AM 30.2 °F 19.8 °F 20.5 °F 67% 30.06 in 10.0 mi West 13.8 mph - N/A   Clear
9:15 AM 32.5 °F 22.7 °F 21.4 °F 64% 30.06 in 10.0 mi West 13.8 mph - N/A   Clear
9:35 AM 36.0 °F 27.1 °F 21.7 °F 56% 30.06 in 10.0 mi West 13.8 mph - N/A   Clear
9:55 AM 37.2 °F 27.9 °F 21.4 °F 53% 30.06 in 10.0 mi West 16.1 mph - N/A   Clear
10:15 AM 42.1 °F 32.1 °F 21.4 °F 44% 30.06 in 10.0 mi West 25.3 mph 28.8 mph N/A   Clear
10:35 AM 42.8 °F 34.0 °F 20.7 °F 41% 30.07 in 10.0 mi West 20.7 mph - N/A   Scattered Clouds
10:55 AM 44.1 °F 36.8 °F 21.2 °F 40% 30.07 in 10.0 mi West 16.1 mph 23.0 mph N/A   Scattered Clouds
11:15 AM 45.0 °F 39.7 °F 21.9 °F 40% 30.06 in 10.0 mi West 10.4 mph - N/A   Scattered Clouds
11:35 AM 45.7 °F 39.1 °F 21.7 °F 39% 30.06 in 10.0 mi West 15.0 mph 25.3 mph N/A   Clear
11:55 AM 46.6 °F - 21.2 °F 37% 30.04 in 10.0 mi WNW 23.0 mph 29.9 mph N/A   Clear
12:15 PM 48.4 °F - 20.8 °F 34% 30.02 in 10.0 mi WNW 29.9 mph 42.6 mph N/A   Clear
12:35 PM 50.7 °F - 20.7 °F 31% 30.02 in 10.0 mi WNW 28.8 mph 36.8 mph N/A   Clear
12:55 PM 50.4 °F - 20.3 °F 31% 30.00 in 10.0 mi WNW 29.9 mph 36.8 mph N/A   Clear
1:15 PM 51.6 °F - 20.8 °F 30% 29.98 in 10.0 mi WNW 27.6 mph 34.5 mph N/A   Clear
1:35 PM 51.1 °F - 19.4 °F 29% 29.96 in 10.0 mi WNW 32.2 mph 40.3 mph N/A   Clear
1:55 PM 50.0 °F - 19.4 °F 30% 29.94 in 10.0 mi WNW 27.6 mph 38.0 mph N/A   Clear
2:15 PM 48.7 °F - 19.8 °F 32% 29.94 in 10.0 mi WNW 21.9 mph 36.8 mph N/A   Clear
2:35 PM 50.0 °F - 19.4 °F 30% 29.95 in 10.0 mi WNW 25.3 mph 33.4 mph N/A   Clear
2:55 PM 51.8 °F - 20.3 °F 29% 29.94 in 10.0 mi WNW 23.0 mph 32.2 mph N/A   Clear
3:15 PM 52.7 °F - 19.4 °F 27% 29.94 in 10.0 mi WNW 23.0 mph 34.5 mph N/A   Clear
3:35 PM 51.1 °F - 17.2 °F 26% 29.95 in 10.0 mi WNW 25.3 mph 40.3 mph N/A   Clear
3:55 PM 50.7 °F - 17.8 °F 27% 29.96 in 10.0 mi WNW 21.9 mph 39.1 mph N/A   Clear
4:15 PM 49.6 °F - 16.3 °F 27% 29.96 in 10.0 mi NW 27.6 mph 40.3 mph N/A   Scattered Clouds
4:35 PM 48.6 °F - 15.6 °F 27% 29.97 in 10.0 mi WNW 35.7 mph 43.7 mph N/A   Scattered Clouds
4:55 PM 48.0 °F - 17.1 °F 29% 29.99 in 10.0 mi WNW 20.7 mph 36.8 mph N/A   Clear
5:15 PM 46.8 °F - 17.1 °F 31% 29.98 in 10.0 mi WNW 29.9 mph 34.5 mph N/A   Clear
5:35 PM 45.5 °F 36.1 °F 17.6 °F 33% 29.98 in 10.0 mi WNW 28.8 mph 32.2 mph N/A   Clear
5:55 PM 43.7 °F 34.3 °F 17.2 °F 35% 29.98 in 10.0 mi WNW 25.3 mph 34.5 mph N/A   Clear
6:15 PM 42.1 °F 33.1 °F 17.6 °F 37% 29.98 in 10.0 mi WNW 20.7 mph 26.5 mph N/A   Clear
6:35 PM 41.2 °F 32.1 °F 18.1 °F 40% 29.98 in 10.0 mi WNW 19.6 mph - N/A   Clear
6:55 PM 41.0 °F 31.1 °F 18.5 °F 40% 29.98 in 10.0 mi WNW 23.0 mph 28.8 mph N/A   Clear
7:15 PM 40.5 °F 30.4 °F 18.5 °F 41% 29.97 in 10.0 mi WNW 23.0 mph - N/A   Clear
7:35 PM 40.1 °F 29.9 °F 18.5 °F 42% 29.97 in 10.0 mi WNW 23.0 mph 29.9 mph N/A   Clear
7:55 PM 40.1 °F 30.7 °F 18.1 °F 41% 29.97 in 10.0 mi NW 19.6 mph 28.8 mph N/A   Clear
8:15 PM 40.1 °F 30.7 °F 17.6 °F 40% 29.97 in 10.0 mi WNW 19.6 mph 25.3 mph N/A   Clear
8:35 PM 39.4 °F 30.7 °F 17.4 °F 41% 29.97 in 10.0 mi WNW 16.1 mph 21.9 mph N/A   Clear
8:55 PM 39.2 °F 29.6 °F 17.2 °F 41% 29.97 in 10.0 mi WNW 19.6 mph 24.2 mph N/A   Clear
9:15 PM 39.6 °F 30.0 °F 16.9 °F 40% 29.97 in 10.0 mi WNW 19.6 mph 25.3 mph N/A   Clear
9:35 PM 40.1 °F 31.0 °F 16.5 °F 39% 29.98 in 10.0 mi WNW 18.4 mph 26.5 mph N/A   Clear
9:55 PM 40.1 °F 30.2 °F 16.5 °F 39% 29.97 in 10.0 mi WNW 21.9 mph 31.1 mph N/A   Clear
10:15 PM 40.3 °F 30.7 °F 16.5 °F 38% 29.97 in 10.0 mi WNW 20.7 mph 29.9 mph N/A   Clear
10:35 PM 39.9 °F 29.7 °F 16.5 °F 39% 29.97 in 10.0 mi NW 23.0 mph 28.8 mph N/A   Clear
10:55 PM 40.1 °F 29.9 °F 16.2 °F 38% 29.97 in 10.0 mi NW 23.0 mph 31.1 mph N/A   Clear
11:15 PM 40.3 °F 29.7 °F 15.8 °F 37% 29.97 in 10.0 mi NW 25.3 mph 31.1 mph N/A   Clear
11:35 PM 39.9 °F 30.2 °F 16.0 °F 38% 29.98 in 10.0 mi NW 20.7 mph 31.1 mph N/A   Clear
11:55 PM 38.7 °F 28.0 °F 16.5 °F 41% 29.98 in 10.0 mi NW 23.0 mph 28.8 mph N/A   Clear